TimeCDT,TemperatureF,Dew PointF,Humidity,Sea Level PressureIn,VisibilityMPH,Wind Direction,Wind SpeedMPH,Gust SpeedMPH,PrecipitationIn,Events,Conditions,WindDirDegrees,DateUTC
12:15 AM,49.8,37.9,64,30.00,10.0,Calm,Calm,-,N/A,,Clear,0,2013-10-02 05:15:00
12:35 AM,46.4,38.1,73,30.00,10.0,Calm,Calm,-,N/A,,Clear,0,2013-10-02 05:35:00
12:55 AM,42.3,38.1,85,30.00,10.0,Calm,Calm,-,N/A,,Clear,0,2013-10-02 05:55:00
1:15 AM,42.3,37.4,83,30.01,10.0,Calm,Calm,-,N/A,,Clear,0,2013-10-02 06:15:00
1:35 AM,42.4,38.3,85,30.02,10.0,Calm,Calm,-,N/A,,Clear,0,2013-10-02 06:35:00
1:55 AM,41.0,37.8,88,30.02,10.0,Calm,Calm,-,N/A,,Clear,0,2013-10-02 06:55:00
2:15 AM,41.0,37.2,86,30.03,10.0,Calm,Calm,-,N/A,,Clear,0,2013-10-02 07:15:00
2:35 AM,39.9,36.3,87,30.03,10.0,Calm,Calm,-,N/A,,Clear,0,2013-10-02 07:35:00
2:55 AM,38.7,35.6,89,30.03,10.0,Calm,Calm,-,N/A,,Clear,0,2013-10-02 07:55:00
3:15 AM,39.4,36.9,91,30.03,10.0,Calm,Calm,-,N/A,,Clear,0,2013-10-02 08:15:00
3:35 AM,38.8,37.0,93,30.04,10.0,Calm,Calm,-,N/A,,Clear,0,2013-10-02 08:35:00
3:55 AM,37.8,34.5,88,30.04,10.0,Calm,Calm,-,N/A,,Clear,0,2013-10-02 08:55:00
4:15 AM,37.8,35.8,93,30.04,10.0,ESE,3.5,-,N/A,,Clear,110,2013-10-02 09:15:00
4:35 AM,36.9,34.3,91,30.05,10.0,Calm,Calm,-,N/A,,Clear,0,2013-10-02 09:35:00
4:55 AM,36.3,34.5,93,30.06,10.0,Calm,Calm,-,N/A,,Clear,0,2013-10-02 09:55:00
5:15 AM,36.5,34.9,94,30.06,10.0,Calm,Calm,-,N/A,,Clear,0,2013-10-02 10:15:00
5:35 AM,35.2,34.2,96,30.06,10.0,Calm,Calm,-,N/A,,Clear,0,2013-10-02 10:35:00
5:55 AM,36.7,35.2,95,30.07,10.0,Calm,Calm,-,N/A,,Clear,0,2013-10-02 10:55:00
6:15 AM,35.2,33.6,94,30.06,10.0,Calm,Calm,-,N/A,,Clear,0,2013-10-02 11:15:00
6:35 AM,35.2,34.2,96,30.07,10.0,Calm,Calm,-,N/A,,Clear,0,2013-10-02 11:35:00
6:55 AM,34.9,33.6,95,30.07,10.0,Calm,Calm,-,N/A,,Clear,0,2013-10-02 11:55:00
7:15 AM,35.8,34.3,94,30.08,10.0,ESE,3.5,-,N/A,,Clear,110,2013-10-02 12:15:00
7:35 AM,34.2,32.7,94,30.08,10.0,Calm,Calm,-,N/A,,Clear,0,2013-10-02 12:35:00
7:55 AM,37.0,35.6,95,30.08,10.0,Calm,Calm,-,N/A,,Clear,0,2013-10-02 12:55:00
8:15 AM,40.1,36.7,88,30.09,10.0,Calm,Calm,-,N/A,,Clear,0,2013-10-02 13:15:00
8:35 AM,42.8,38.5,85,30.09,10.0,Calm,Calm,-,N/A,,Clear,0,2013-10-02 13:35:00
8:55 AM,45.7,40.6,83,30.10,10.0,Calm,Calm,-,N/A,,Clear,0,2013-10-02 13:55:00
9:15 AM,49.3,41.2,74,30.11,10.0,Calm,Calm,-,N/A,,Clear,0,2013-10-02 14:15:00
9:35 AM,52.0,41.9,69,30.10,10.0,Calm,Calm,-,N/A,,Clear,0,2013-10-02 14:35:00
9:55 AM,55.2,43.3,64,30.10,10.0,Calm,Calm,-,N/A,,Clear,0,2013-10-02 14:55:00
10:15 AM,58.1,43.7,59,30.11,10.0,SSE,3.5,-,N/A,,Clear,150,2013-10-02 15:15:00
10:35 AM,59.2,44.6,58,30.11,10.0,Calm,Calm,-,N/A,,Clear,0,2013-10-02 15:35:00
10:55 AM,61.7,42.8,50,30.10,10.0,Calm,Calm,-,N/A,,Clear,0,2013-10-02 15:55:00
11:15 AM,64.0,41.7,44,30.11,10.0,South,5.8,-,N/A,,Clear,190,2013-10-02 16:15:00
11:35 AM,66.9,40.6,38,30.10,10.0,South,6.9,-,N/A,,Clear,180,2013-10-02 16:35:00
11:55 AM,68.7,40.6,36,30.09,10.0,SSE,6.9,-,N/A,,Clear,160,2013-10-02 16:55:00
12:15 PM,69.3,37.4,31,30.09,10.0,SSE,8.1,-,N/A,,Clear,160,2013-10-02 17:15:00
12:35 PM,69.8,37.6,31,30.08,10.0,South,9.2,-,N/A,,Clear,190,2013-10-02 17:35:00
12:55 PM,69.1,35.2,29,30.08,10.0,South,5.8,-,N/A,,Clear,170,2013-10-02 17:55:00
1:15 PM,71.1,33.3,25,30.07,10.0,South,3.5,-,N/A,,Clear,190,2013-10-02 18:15:00
1:35 PM,71.6,35.6,27,30.06,10.0,SSW,5.8,-,N/A,,Clear,210,2013-10-02 18:35:00
1:55 PM,72.3,34.7,25,30.05,10.0,South,4.6,-,N/A,,Clear,170,2013-10-02 18:55:00
2:15 PM,72.1,35.8,26,30.05,10.0,South,6.9,-,N/A,,Clear,180,2013-10-02 19:15:00
2:35 PM,72.7,33.6,24,30.05,10.0,SSE,3.5,-,N/A,,Clear,160,2013-10-02 19:35:00
2:55 PM,73.4,34.5,24,30.03,10.0,SSE,8.1,-,N/A,,Clear,160,2013-10-02 19:55:00
3:15 PM,73.4,36.1,26,30.02,10.0,SSE,6.9,-,N/A,,Clear,160,2013-10-02 20:15:00
3:35 PM,73.6,36.3,26,30.01,10.0,South,10.4,-,N/A,,Clear,170,2013-10-02 20:35:00
3:55 PM,73.4,34.3,24,30.00,10.0,SSE,5.8,-,N/A,,Clear,160,2013-10-02 20:55:00
4:15 PM,73.4,32.9,23,30.00,10.0,SSE,4.6,-,N/A,,Clear,160,2013-10-02 21:15:00
4:35 PM,73.4,35.6,25,29.99,10.0,SSE,4.6,-,N/A,,Clear,160,2013-10-02 21:35:00
4:55 PM,73.4,35.8,25,29.99,10.0,SSE,8.1,-,N/A,,Clear,150,2013-10-02 21:55:00
5:15 PM,72.5,35.8,26,29.98,10.0,SSE,8.1,-,N/A,,Clear,150,2013-10-02 22:15:00
5:35 PM,68.9,36.1,30,29.99,10.0,South,5.8,-,N/A,,Clear,170,2013-10-02 22:35:00
5:55 PM,70.0,37.2,30,29.98,10.0,ESE,5.8,-,N/A,,Scattered Clouds,120,2013-10-02 22:55:00
6:15 PM,68.5,37.4,32,29.98,10.0,SE,4.6,-,N/A,,Scattered Clouds,130,2013-10-02 23:15:00
6:35 PM,67.1,37.8,34,29.97,10.0,SE,5.8,-,N/A,,Mostly Cloudy,130,2013-10-02 23:35:00
6:55 PM,67.1,39.0,36,29.97,10.0,ESE,5.8,-,N/A,,Overcast,120,2013-10-02 23:55:00
7:15 PM,65.8,39.2,38,29.95,10.0,ESE,8.1,-,N/A,,Scattered Clouds,120,2013-10-03 00:15:00
7:35 PM,65.3,38.7,38,29.94,10.0,ESE,8.1,-,N/A,,Scattered Clouds,120,2013-10-03 00:35:00
7:55 PM,64.4,39.4,40,29.95,10.0,SE,5.8,-,N/A,,Scattered Clouds,130,2013-10-03 00:55:00
8:15 PM,64.2,40.3,41,29.98,10.0,Calm,Calm,-,N/A,,Mostly Cloudy,0,2013-10-03 01:15:00
8:35 PM,65.5,39.0,38,30.00,10.0,West,9.2,16.1,N/A,,Overcast,260,2013-10-03 01:35:00
8:55 PM,68.0,37.6,33,30.01,10.0,East,3.5,-,N/A,,Overcast,80,2013-10-03 01:55:00
9:15 PM,65.5,41.7,42,30.00,10.0,Calm,Calm,-,N/A,,Overcast,0,2013-10-03 02:15:00
9:35 PM,63.7,43.7,48,29.99,10.0,Calm,Calm,-,N/A,Rain,Light Rain,0,2013-10-03 02:35:00
9:55 PM,61.0,46.4,59,29.98,10.0,NNE,4.6,-,N/A,,Overcast,30,2013-10-03 02:55:00
10:15 PM,58.5,49.8,73,29.98,10.0,NE,5.8,-,0.01,Rain,Light Rain,40,2013-10-03 03:15:00
10:35 PM,55.8,51.6,86,29.99,7.0,NNE,6.9,-,0.05,Rain,Rain,30,2013-10-03 03:35:00
10:55 PM,55.4,52.0,88,30.01,5.0,Calm,Calm,-,0.10,Rain,Rain,0,2013-10-03 03:55:00
11:15 PM,54.9,52.2,91,30.01,5.0,NNE,4.6,-,0.06,Rain-Thunderstorm,Rain,30,2013-10-03 04:15:00
11:35 PM,54.5,52.3,92,30.02,5.0,NNE,3.5,-,0.14,Rain-Thunderstorm,Heavy Thunderstorms and Rain,30,2013-10-03 04:35:00
11:55 PM,54.0,52.2,94,30.03,7.0,NNW,3.5,-,0.21,Rain-Thunderstorm,Thunderstorms and Rain,340,2013-10-03 04:55:00